Regional Weather Roundup
Issued by NWS

Home | Current Version | Previous Version | Graphics & Text | Print | Product List | Glossary On
Versions: 1 2 3 4 5 6 7 8 9 10 11 12 13 14 15 16 17 18 19 20 21 22 23 24 25 26 27 28 29 30 31 32 33 34 35 36 37 38 39 40 41 42 43 44 45 46 47 48 49 50
787
ASUS44 KMEG 281310
RWRTN
TENNESSEE HOURLY STATE WEATHER ROUNDUP
NATIONAL WEATHER SERVICE MEMPHIS TN
800 AM CDT TUE MAR 28 2017

TNZ002-004-019-021-049-052-054-088>092-281400-
WEST TENNESSEE

CITY           SKY/WX    TMP DP  RH WIND       PRES   REMARKS
MEMPHIS INTL   CLOUDY    60  58  92 NE9       30.00R FOG
NWS MEMPHIS      N/A     58 N/A N/A MISG        N/A
JACKSON        SUNNY     57  55  93 NE6       30.01R FOG
DYERSBURG      CLOUDY    56  53  90 N8        30.02R
SOMERVILLE     CLOUDY    57  57 100 VRB6      29.99R FOG
BOLIVAR        FOG       55  55 100 VRB3G12   29.99R VSB 0
PARIS          PTSUNNY   52  52 100 CALM      30.00R
HUNTINGDON     FOG       54  54 100 CALM      30.00R VSB 1
SAVANNAH       CLOUDY    57  57 100 NE8       29.99R
$$

TNZ008-025-027-028-033-062-065-066-281400-
NORTH MIDDLE TENNESSEE

CITY           SKY/WX    TMP DP  RH WIND       PRES   REMARKS
NASHVILLE      PTSUNNY   57  54  89 CALM      30.01R
PORTLAND       CLOUDY    55  54  94 W5        29.99R
CLARKSVILLE    CLOUDY    55  52  89 W6        30.00R
SMYRNA         CLOUDY    56  54  93 NW8       30.02R
COOKEVILLE     CLOUDY    57  57 100 CALM      29.97R
GALLATIN       CLOUDY    57  54  88 CALM      30.02R
CROSSVILLE     CLOUDY    55  54  96 W8        29.99R
$$

TNZ061-075-076-078-094-096-097-281400-
SOUTH MIDDLE TENNESSEE

CITY           SKY/WX    TMP DP  RH WIND       PRES   REMARKS
FAYETTEVILLE   FOG       57  57 100 CALM      29.98R VSB 1/4
TULLAHOMA      CLOUDY    57  57 100 CALM        N/A
WINCHESTER     CLOUDY    55  55 100 CALM      29.99R
MCMINNVILLE    PTSUNNY   57  57 100 W3        29.98R
COLUMBIA       CLOUDY   N/A N/A N/A VRB6      29.98R
SHELBYVILLE    CLOUDY    59  57  94 NW6       30.00R
$$

TNZ017-018-042-046-047-281400-
NORTHEAST TENNESSEE

CITY           SKY/WX    TMP DP  RH WIND       PRES   REMARKS
TRI CITIES     CLOUDY    58  55  90 W6        29.96R
ELIZABETHTON   LGT RAIN  57  55  94 W6        29.96R
$$

TNZ012-013-036-069-073-074-281400-
CENTRAL EAST TENNESSEE

CITY           SKY/WX    TMP DP  RH WIND       PRES   REMARKS
KNOXVILLE      CLOUDY    58  56  93 W14       29.97R
OAK RIDGE      CLOUDY    59  56  89 SW3       29.98R
DOWNTOWN KNOXV CLOUDY    59  57  94 W9        29.97R
GATLINBURG     CLOUDY    55  55 100 W8        29.96R
MORRISTOWN     CLOUDY    59  57  94 W8        29.96R
JACKSBORO      CLOUDY    57  55  94 CALM      29.99R
$$

TNZ083-085-099-281400-
SOUTHEAST TENNESSEE

CITY           SKY/WX    TMP DP  RH WIND       PRES   REMARKS
CHATTANOOGA    CLOUDY    57  57 100 S3        29.98R FOG
$$

SKY/WX REPORTED AS FAIR MEANS FEW OR NO CLOUDS BELOW
12 THOUSAND FEET.





USA.gov is the U.S. government's official web portal to all federal, state and local government web resources and services.